Location: Seminole
(32.7190°N, 102.6440°W)
Time: 05:35:44
(UTC-05:00)

Meteor 2-10 - Visible Passes

Search period start: 28 June 2017 00:00
Search period end: 08 July 2017 00:00
Orbit: 738 x 869 km, 81.2° (Epoch: 27 June)

Date Brightness Start Highest point End Pass type
(mag) Time Alt. Az. Time Alt. Az. Time Alt. Az.
28 Jun 6.4 00:38:32 10° NW 00:41:41 15° W 00:43:04 14° WSW visible
28 Jun 4.9 22:29:00 10° N 22:34:13 37° ENE 22:36:32 26° ESE visible
29 Jun 6.0 00:11:29 10° NW 00:15:51 23° W 00:17:34 20° WSW visible
29 Jun 5.4 22:03:27 10° NNE 22:08:05 25° ENE 22:11:04 17° ESE visible
29 Jun 5.5 23:44:53 10° NNW 23:49:58 34° W 23:52:06 26° SW visible
30 Jun 5.9 21:38:15 10° NNE 21:41:52 17° ENE 21:45:30 10° ESE visible
30 Jun 4.9 23:18:33 10° NNW 23:24:03 52° W 23:26:39 30° SSW visible
01 Jul 4.3 22:52:23 10° N 22:58:05 78° W 23:01:14 28° S visible
02 Jul 4.2 22:26:22 10° N 22:32:05 71° E 22:35:50 22° SSE visible
03 Jul 6.8 00:11:30 10° WNW 00:13:16 11° W 00:15:02 10° WSW visible
03 Jul 4.6 22:00:30 10° N 22:06:01 47° E 22:10:28 15° SSE visible
03 Jul 6.5 23:43:45 10° NW 23:47:28 18° W 23:51:12 10° SW visible
04 Jul 5.1 21:34:49 10° NNE 21:39:54 32° ENE 21:44:58 10° SE visible
04 Jul 6.0 23:16:56 10° NW 23:21:38 27° W 23:26:12 11° SW visible
05 Jul 5.4 22:50:26 10° NNW 22:55:44 40° W 23:00:55 11° SSW visible
06 Jul 4.7 22:24:10 10° NNW 22:29:48 60° W 22:35:25 10° S visible
07 Jul 4.3 21:58:03 10° N 22:03:49 89° W 22:09:32 10° S visible
